Location: Dompnac
(44.5644°N, 4.1026°E)
Time: 09:53:54
(UTC+00:00)

Cosmos 2026 Rocket - Pass Details

Date: 20 January 2021
Orbit: 940 x 1000 km, 82.9° (Epoch: 26 February)

Event Time Altitude Azimuth Distance (km) Brightness Sun altitude
Rises 17:46:51 0° 149° (SSE) 3,600 6.8 -12.5°
Reaches altitude 10° 17:49:44 10° 137° (SE) 2,666 6.0 -13.0°
Maximum altitude 17:54:34 25° 84° (E) 1,809 4.8 -13.8°
Drops below altitude 10° 17:59:29 10° 31° (NNE) 2,710 5.9 -14.7°
Sets 18:02:25 0° 19° (NNE) 3,671 6.7 -15.2°
